Location: Boissi�res
(45.2500°N, 2.3667°E)
Time: 19:21:14
(UTC+00:00)

SL-8 Rocket - Pass Details

Date: 03 March 2021
Orbit: 957 x 990 km, 82.9° (Epoch: 19 April)

Event Time Altitude Azimuth Distance (km) Brightness Sun altitude
Rises 19:50:09 0° 194° (SSW) 3,669 7.0 -23.4°
Reaches altitude 10° 19:52:41 10° 197° (SSW) 2,721 6.3 -23.8°
Maximum altitude 19:58:53 68° 280° (W) 1,044 4.3 -24.9°
Drops below altitude 10° 20:05:05 10° 4° (N) 2,716 6.5 -25.9°
Sets 20:07:37 0° 7° (N) 3,662 7.2 -26.4°
